This is the latest recevied weather packets stored in our database for station/object DB0GMN-13. If no packets are shown the sender has not sent any weather packets the latest 10 day(s).
| Time | Temp. | Humidity | Pressure | Rain* | Wind** | Luminosity | Snow |
|---|---|---|---|---|---|---|---|
| 1777558522 | -1.11° C | 96% | 1029 hPa | 0 mm | - | 594 W/m² | - |
| 1777557374 | -1.11° C | 95% | 1029.2 hPa | 0 mm | - | 580 W/m² | - |
| 1777556769 | -1.11° C | 97% | 1029.3 hPa | 0 mm | - | 600 W/m² | - |
| 1777554959 | -1.11° C | 93% | 1029.5 hPa | 0 mm | - | 732 W/m² | - |
| 1777554375 | -1.11° C | 93% | 1029.6 hPa | 0 mm | - | 744 W/m² | - |
| 1777544754 | -1.11° C | 95% | 1030.4 hPa | 0 mm | - | 824 W/m² | - |
| 1777544150 | -1.11° C | 95% | 1030.4 hPa | 0 mm | - | 833 W/m² | - |
| 1777543545 | -1.11° C | 95% | 1030.4 hPa | 0 mm | - | 806 W/m² | - |
| 1777540527 | -1.11° C | 95% | 1030.6 hPa | 0 mm | - | 656 W/m² | - |
| 1777536983 | -1.11° C | 93% | 1031 hPa | 0 mm | - | 659 W/m² | - |
| 1777535777 | -1.11° C | 94% | 1031.1 hPa | 0 mm | - | 454 W/m² | - |
| 1777529717 | - | 99% | 1031.1 hPa | 0 mm | - | 258 W/m² | - |
| 1777528568 | -1.11° C | 98% | 1031 hPa | 0 mm | - | 114 W/m² | - |
| 1777526758 | -1.11° C | 99% | 1030.9 hPa | 0 mm | - | 51 W/m² | - |
| 1777525550 | -1.11° C | 99% | 1030.9 hPa | 0 mm | - | 45 W/m² | - |
| 1777518968 | -1.11° C | 96% | 1030.6 hPa | 0 mm | - | 0 W/m² | - |
| 1777515970 | -1.11° C | 95% | 1030.6 hPa | 0 mm | - | 0 W/m² | - |
| 1777514135 | -1.11° C | 95% | 1030.6 hPa | 0 mm | - | 0 W/m² | - |
| 1777506349 | -1.11° C | 99% | 1030.7 hPa | 0 mm | - | 0 W/m² | - |
| 1777505140 | -1.11° C | 98% | 1030.8 hPa | 0 mm | - | 0 W/m² | - |
| 1777501516 | -1.11° C | 99% | 1030.6 hPa | 0 mm | - | 0 W/m² | - |
| 1777497349 | - | - | 1030.1 hPa | 0 mm | - | 0 W/m² | - |
| 1777494329 | - | 99% | 1029.8 hPa | 0 mm | - | 0 W/m² | - |
| 1777491372 | 0.56° C | 99% | 1029.8 hPa | 0 mm | - | 0 W/m² | - |
| 1777483520 | -1.11° C | 93% | 1029 hPa | 0 mm | - | 62 W/m² | - |
* Rain latest hour (hover to see other rain measurements)
** Current wind speed in m/s (hover to see current wind gust speed)